"2016-06-09 00:00:00",1706331,4.003,275.9,2.42,0.349,23.81,108.5814,21.25,22.33,29.57,0,110.8,13.1,22.08,237.9
"2016-06-09 00:00:30",1706332,4.225,279.5,5.231,0.268,23.78,108.5811,21.25,22.31,29.75,0,110.9,13.1,22.08,241.5
"2016-06-09 00:01:00",1706333,4.581,260.7,8.98,0.229,23.87,108.5797,21.25,22.29,30.4,0,110.8,13.1,22.07,222.7
"2016-06-09 00:01:30",1706334,4.746,250,7.745,1.006,24.31,108.5647,21.21,22.28,28.73,0,110.9,13.1,22.03,212.0
"2016-06-09 00:02:00",1706335,6.081,239.6,12.93,0.917,24.56,108.5479,21.17,22.25,28.59,0,110.9,13.1,21.99,201.6
"2016-06-09 00:02:30",1706336,7.463,242.5,8.93,1.063,7.884,108.5473,21.16,22.24,27.57,0,110.9,13.1,21.99,204.5
"2016-06-09 00:03:00",1706337,6.984,227.8,5.318,0.851,24.23,108.5473,21.16,22.22,27.6,0,110.9,13.1,21.99,189.8
"2016-06-09 00:03:30",1706338,8.41,229,4.075,0.98,24.32,108.5473,21.16,22.22,27.88,0,110.9,13.1,21.99,191.0
"2016-06-09 00:04:00",1706339,7.375,220.7,4.823,0.627,24.14,108.5476,21.16,22.21,28.93,0,110.9,13.1,21.99,182.7
"2016-06-09 00:04:30",1706340,6.161,228.7,6.828,0.776,23.94,108.5588,21.19,22.22,28.55,0,110.9,13.1,22.02,190.7
"2016-06-09 00:05:00",1706341,8.8,216.4,6.58,0.534,24.32,108.5729,21.23,22.22,28.09,0,110.9,13.1,22.06,178.4
"2016-06-09 00:05:30",1706342,8.59,207.2,7.73,1.048,24.23,108.5811,21.25,22.22,27.46,0,110.9,13.1,22.08,169.2
"2016-06-09 00:06:00",1706343,6.24,241.7,14.32,1.039,23.86,108.5816,21.25,22.22,27.07,0,110.9,13.11,22.08,203.7
"2016-06-09 00:06:30",1706344,6.688,227.7,5.818,0.792,23.83,108.6151,21.34,22.24,26.9,0,110.9,13.11,22.16,189.7
"2016-06-09 00:07:00",1706345,6.567,218.3,10.42,0.592,23.8,108.643,21.41,22.27,26.92,0,110.9,13.11,22.24,180.3
"2016-06-09 00:07:30",1706346,7.286,230.3,5.12,0.978,23.73,108.6487,21.42,22.31,27.01,0,110.9,13.11,22.25,192.3
"2016-06-09 00:08:00",1706347,7.268,232.1,3.426,0.444,24.07,108.6698,21.48,22.34,26.08,0,110.9,13.11,22.31,194.1
"2016-06-09 00:08:30",1706348,6.484,228.8,12.1,0.707,23.94,108.6824,21.51,22.37,25.64,0,110.9,13.11,22.34,190.8
"2016-06-09 00:09:00",1706349,7.816,218.6,3.516,0.462,23.82,108.6996,21.55,22.4,26.5,0,110.9,13.11,22.38,180.6
"2016-06-09 00:09:30",1706350,7.386,219.1,3.062,0.667,23.61,108.7159,21.6,22.43,26.91,0,110.9,13.11,22.42,181.1
"2016-06-09 00:10:00",1706351,6.945,219,5.384,1.139,23.43,108.7221,21.61,22.47,27.28,0,110.9,13.11,22.44,181.0
"2016-06-09 00:10:30",1706352,7.969,226.3,4.071,0.801,23.54,108.7486,21.68,22.5,26.79,0,110.9,13.1,22.51,188.3
"2016-06-09 00:11:00",1706353,6.519,218.7,5.43,0.724,23.43,108.7646,21.72,22.54,26.91,0,110.9,13.1,22.55,180.7
"2016-06-09 00:11:30",1706354,5.341,222.1,12.57,0.695,23.14,108.7826,21.77,22.58,26.96,0,110.9,13.1,22.60,184.1
"2016-06-09 00:12:00",1706355,5.291,249,9.78,0.748,23.16,108.8043,21.82,22.62,26.86,0,110.9,13.1,22.65,211.0
"2016-06-09 00:12:30",1706356,5.226,229,5.782,0.5,22.91,108.8183,21.86,22.67,27.28,0,110.9,13.1,22.69,191.0
"2016-06-09 00:13:00",1706357,6.774,216.3,6.878,0.949,23.13,108.8363,21.91,22.7,27.16,0,110.9,13.1,22.73,178.3
"2016-06-09 00:13:30",1706358,7.39,213.9,6.586,0.746,23.26,108.8345,21.9,22.74,26.83,0,110.9,13.1,22.73,175.9
"2016-06-09 00:14:00",1706359,6.631,214.6,4.459,0.617,23,108.832,21.89,22.76,26.9,0,110.9,13.1,22.72,176.6
"2016-06-09 00:14:30",1706360,6.411,215.5,8.96,0.897,23.03,108.8524,21.95,22.79,27.08,0,110.9,13.1,22.78,177.5
"2016-06-09 00:15:00",1706361,4.709,218.3,8.37,0.654,23.2,108.8572,21.96,22.83,26.14,0,110.9,13.1,22.79,180.3
"2016-06-09 00:15:30",1706362,5.031,215.7,12.64,0.637,23.07,108.8577,21.96,22.86,26.26,0,110.9,13.1,22.79,177.7
"2016-06-09 00:16:00",1706363,3.922,206.9,14.43,1.033,23.19,108.8803,22.02,22.88,26.08,0,110.9,13.1,22.85,168.9
"2016-06-09 00:16:30",1706364,2.582,242,4.675,0.362,23.1,108.8827,22.03,22.9,26.22,0,110.9,13.1,22.85,204.0
"2016-06-09 00:17:00",1706365,4.278,241.4,8.02,0.48,23.19,108.8827,22.03,22.92,26.1,0,110.9,13.1,22.85,203.4
"2016-06-09 00:17:30",1706366,5.082,229.2,8.16,0.845,23.24,108.8824,22.02,22.94,26.08,0,110.9,13.1,22.85,191.2
"2016-06-09 00:18:00",1706367,6.401,233.2,4.161,0.349,23.37,108.8993,22.07,22.96,26.05,0,110.9,13.09,22.90,195.2
"2016-06-09 00:18:30",1706368,6.416,233.2,3.073,0.463,23.24,108.9142,22.11,22.98,26.01,0,110.9,13.09,22.93,195.2
"2016-06-09 00:19:00",1706369,6.151,231.7,3.321,0.363,23.15,108.9159,22.11,23.01,26.3,0,110.9,13.09,22.94,193.7
"2016-06-09 00:19:30",1706370,6.918,229.6,2.443,0.658,23.21,108.9159,22.11,23.02,26.21,0,110.9,13.09,22.94,191.6
"2016-06-09 00:20:00",1706371,6.38,230.8,4.141,0.632,23.21,108.9159,22.11,23.03,26.15,0,110.9,13.08,22.94,192.8
"2016-06-09 00:20:30",1706372,6.044,239.7,2.813,0.416,23.46,108.9331,22.15,23.04,25.29,0,110.9,13.08,22.98,201.7
"2016-06-09 00:21:00",1706373,6.66,240,5.262,0.857,23.6,108.9497,22.2,23.06,24.66,0,110.9,13.08,23.03,202.0
"2016-06-09 00:21:30",1706374,6.891,241.9,3.817,0.585,23.68,108.9497,22.2,23.09,24.31,0,110.9,13.09,23.03,203.9
"2016-06-09 00:22:00",1706375,8.2,246.9,3.838,0.676,23.73,108.9567,22.21,23.12,23.79,0,110.9,13.09,23.04,208.9
"2016-06-09 00:22:30",1706376,7.955,245.6,10.11,0.946,23.65,108.9798,22.27,23.14,23.61,0,110.9,13.09,23.10,207.6
"2016-06-09 00:23:00",1706377,7.211,234.2,3.011,0.322,23.54,108.9843,22.29,23.15,23.57,0,110.9,13.09,23.12,196.2
"2016-06-09 00:23:30",1706378,6.986,233.2,4.928,0.521,23.55,109.0113,22.36,23.18,23.52,0,111,13.1,23.19,195.2
"2016-06-09 00:24:00",1706379,6.429,236.5,2.465,0.516,23.49,109.0172,22.37,23.21,23.5,0,111,13.1,23.20,198.5
"2016-06-09 00:24:30",1706380,7.086,235.4,3.251,0.447,23.49,109.0256,22.39,23.25,23.68,0,111,13.1,23.22,197.4
"2016-06-09 00:25:00",1706381,7.883,235.9,4.494,0.969,23.5,109.0462,22.44,23.28,23.56,0,111,13.09,23.27,197.9
"2016-06-09 00:25:30",1706382,8.02,235.5,3.536,1.071,23.4,109.0439,22.44,23.31,23.54,0,111,13.09,23.27,197.5
"2016-06-09 00:26:00",1706383,8.12,239.7,7.023,1.056,23.06,109.051,22.46,23.34,24.2,0,111,13.09,23.29,201.7
"2016-06-09 00:26:30",1706384,9.15,233.4,9.35,1.272,23.09,109.0679,22.5,23.36,24.31,0,111,13.09,23.33,195.4
"2016-06-09 00:27:00",1706385,11.61,236,5.049,0.791,23.38,109.0667,22.5,23.38,23.69,0,111,13.09,23.33,198.0
"2016-06-09 00:27:30",1706386,11.31,236.4,3.801,0.553,23.41,109.0654,22.49,23.41,23.52,0,111,13.09,23.32,198.4
"2016-06-09 00:28:00",1706387,10.8,246.7,6.087,0.743,24.18,109.0923,22.56,23.42,22.53,0,111,13.09,23.39,208.7
"2016-06-09 00:28:30",1706388,9.92,246.2,5.286,0.825,24.03,109.1257,22.65,23.47,22.52,0,111,13.09,23.48,208.2
"2016-06-09 00:29:00",1706389,10.76,251.6,5.098,0.781,24.19,109.1446,22.7,23.52,22.24,0,111,13.09,23.53,213.6
"2016-06-09 00:29:30",1706390,9.61,253.1,7.507,1.952,23.88,109.1526,22.72,23.57,22.29,0,111,13.09,23.55,215.1
"2016-06-09 00:30:00",1706391,10.86,241.6,4.762,0.818,23.57,109.1554,22.72,23.59,22.63,0,111,13.09,23.56,203.6
"2016-06-09 00:30:30",1706392,11.44,239.3,4.135,0.779,22.99,109.1715,22.77,23.63,23.47,0,111,13.09,23.60,201.3
"2016-06-09 00:31:00",1706393,10.21,242.2,2.729,0.595,23.22,109.1827,22.8,23.66,23.5,0,111,13.09,23.63,204.2
"2016-06-09 00:31:30",1706394,10.44,242.7,3.45,0.818,23.66,109.1833,22.8,23.66,22.71,0,111,13.09,23.63,204.7
"2016-06-09 00:32:00",1706395,12.09,248.1,3.805,0.64,23.71,109.183,22.8,23.68,22.61,0,111,13.09,23.63,210.1
"2016-06-09 00:32:30",1706396,11.85,240.2,5.629,0.812,23.34,109.183,22.8,23.71,23.1,0,111,13.08,23.63,202.2
"2016-06-09 00:33:00",1706397,11.54,244.7,1.937,0.562,23.48,109.183,22.8,23.73,22.99,0,111,13.09,23.63,206.7
"2016-06-09 00:33:30",1706398,11.27,242.2,3.528,0.392,23.5,109.1864,22.8,23.74,22.98,0,111,13.08,23.64,204.2
"2016-06-09 00:34:00",1706399,11.47,247,2.662,0.34,23.59,109.1951,22.83,23.75,22.74,0,111,13.08,23.66,209.0
"2016-06-09 00:34:30",1706400,10.06,246.5,2.011,0.387,23.45,109.2027,22.85,23.76,22.88,0,111,13.08,23.68,208.5
"2016-06-09 00:35:00",1706401,10,244.1,2.22,0.587,23.6,109.2044,22.85,23.76,22.71,0,111,13.08,23.68,206.1
"2016-06-09 00:35:30",1706402,9.01,240.3,3.536,0.353,23.52,109.2063,22.86,23.78,22.79,0,111,13.08,23.69,202.3
"2016-06-09 00:36:00",1706403,8.78,242.3,3.612,0.529,23.27,109.2086,22.86,23.78,23.19,0,111,13.08,23.69,204.3
"2016-06-09 00:36:30",1706404,8.5,242,3.07,0.448,23.22,109.2069,22.86,23.78,23.39,0,111,13.08,23.69,204.0
"2016-06-09 00:37:00",1706405,8.06,243,5.696,0.475,23.32,109.2046,22.85,23.79,23.29,0,111,13.08,23.68,205.0
"2016-06-09 00:37:30",1706406,7.483,246.9,1.707,0.204,23.29,109.1928,22.82,23.79,23.24,0,111,13.08,23.65,208.9
"2016-06-09 00:38:00",1706407,6.987,247.1,3.148,0.778,23.17,109.1835,22.8,23.78,23.42,0,111,13.08,23.63,209.1
"2016-06-09 00:38:30",1706408,9.39,252.4,3.366,0.333,23.29,109.1833,22.8,23.79,23.54,0,111,13.08,23.63,214.4
"2016-06-09 00:39:00",1706409,8.05,252.2,3.814,0.957,23.25,109.183,22.8,23.77,23.63,0,111,13.08,23.63,214.2
"2016-06-09 00:39:30",1706410,7.758,241.8,2.489,0.453,23.22,109.183,22.8,23.77,23.52,0,111,13.08,23.63,203.8
"2016-06-09 00:40:00",1706411,7.954,242.4,9,1.199,23.08,109.183,22.8,23.76,23.81,0,111,13.08,23.63,204.4
"2016-06-09 00:40:30",1706412,8.95,237.1,6.463,1.019,23.16,109.1827,22.8,23.76,23.88,0,111,13.08,23.63,199.1
"2016-06-09 00:41:00",1706413,8.08,229,2.904,0.552,23.38,109.1723,22.77,23.75,23.49,0,111,13.08,23.60,191.0
"2016-06-09 00:41:30",1706414,7.775,227.8,6.047,0.485,23.22,109.1655,22.75,23.73,23.49,0,111,13.08,23.58,189.8
"2016-06-09 00:42:00",1706415,7.827,226.7,2.896,0.244,23.03,109.1593,22.74,23.72,23.86,0,111,13.08,23.57,188.7
"2016-06-09 00:42:30",1706416,8.28,226.5,1.464,0.513,23.17,109.1501,22.71,23.72,23.75,0,111,13.08,23.54,188.5
"2016-06-09 00:43:00",1706417,7.243,226.3,3.098,0.497,23.41,109.1495,22.71,23.7,23.34,0,111,13.08,23.54,188.3
"2016-06-09 00:43:30",1706418,6.498,239.1,4.444,0.497,23.68,109.1489,22.71,23.68,22.78,0,111,13.08,23.54,201.1
"2016-06-09 00:44:00",1706419,7.05,227.2,4.293,0.767,23.22,109.1489,22.71,23.68,23.03,0,111,13.08,23.54,189.2
"2016-06-09 00:44:30",1706420,6.55,228.3,5.162,0.674,23.21,109.1464,22.7,23.69,23.03,0,111,13.08,23.53,190.3
"2016-06-09 00:45:00",1706421,4.947,230.7,6.655,0.387,23.22,109.1469,22.7,23.68,22.97,0,111,13.08,23.53,192.7
"2016-06-09 00:45:30",1706422,6.002,230.6,5.644,0.398,23.05,109.1523,22.72,23.68,23.04,0,111,13.08,23.55,192.6
"2016-06-09 00:46:00",1706423,6.348,231.1,4.941,0.589,23.09,109.162,22.74,23.69,22.86,0,111,13.08,23.57,193.1
"2016-06-09 00:46:30",1706424,5.654,238.2,7.629,0.781,22.98,109.1575,22.73,23.69,22.97,0,111,13.08,23.56,200.2
"2016-06-09 00:47:00",1706425,5.271,241.1,6.461,0.514,23.02,109.156,22.73,23.7,22.84,0,111,13.08,23.56,203.1
"2016-06-09 00:47:30",1706426,6.561,239.1,3.609,0.325,22.71,109.1602,22.74,23.71,23.29,0,111,13.08,23.57,201.1
"2016-06-09 00:48:00",1706427,6.744,239.9,3.595,0.477,22.69,109.1695,22.76,23.7,23.42,0,111,13.08,23.59,201.9
"2016-06-09 00:48:30",1706428,5.984,247.7,5.579,0.306,22.6,109.1678,22.76,23.71,23.67,0,111,13.08,23.59,209.7
"2016-06-09 00:49:00",1706429,6.612,245.8,4.403,0.501,22.55,109.1523,22.72,23.68,23.85,0,111,13.08,23.55,207.8
"2016-06-09 00:49:30",1706430,6.262,253.4,2.361,0.6,22.52,109.1484,22.71,23.69,24.02,0,111,13.08,23.54,215.4
"2016-06-09 00:50:00",1706431,6.376,254.3,4.19,0.363,22.48,109.1543,22.72,23.68,24.31,0,111,13.08,23.55,216.3
"2016-06-09 00:50:30",1706432,5.707,246,8.96,0.396,22.8,109.1709,22.76,23.68,23.98,0,111,13.08,23.60,208.0
"2016-06-09 00:51:00",1706433,5.398,246,8.52,0.225,22.9,109.1788,22.79,23.7,23.27,0,111.1,13.07,23.62,208.0
"2016-06-09 00:51:30",1706434,5.395,250.7,4.542,0.295,22.81,109.1799,22.79,23.71,23.76,0,111.1,13.07,23.62,212.7
"2016-06-09 00:52:00",1706435,6.023,249.4,2.893,0.386,22.84,109.1684,22.76,23.69,23.87,0,111.1,13.07,23.59,211.4
"2016-06-09 00:52:30",1706436,5.733,242.1,1.781,0.192,22.87,109.1459,22.7,23.66,23.81,0,111.1,13.07,23.53,204.1
"2016-06-09 00:53:00",1706437,4.781,251.2,6.663,0.684,22.53,109.12,22.63,23.62,24.85,0,111.1,13.07,23.47,213.2
"2016-06-09 00:53:30",1706438,3.762,260.8,11.99,0.543,21.89,109.0921,22.56,23.58,26.54,0,111.1,13.07,23.39,222.8
"2016-06-09 00:54:00",1706439,3.963,288.3,12.06,0.77,20.86,109.0488,22.45,23.51,29.88,0,111.1,13.07,23.28,250.3
"2016-06-09 00:54:30",1706440,4.949,301.1,6.13,0.597,20.95,109.0449,22.44,23.46,30.4,0,111.1,13.07,23.27,263.1
"2016-06-09 00:55:00",1706441,6.778,304.9,2.649,0.508,21.38,109.044,22.44,23.45,29.8,0,111.1,13.07,23.27,266.9
"2016-06-09 00:55:30",1706442,6.273,302.4,2.949,0.3,21.57,109.0392,22.43,23.44,29.16,0,111.1,13.06,23.26,264.4
"2016-06-09 00:56:00",1706443,7.124,298.1,3.521,0.32,21.8,109.0115,22.36,23.43,28.34,0,111.1,13.06,23.19,260.1
"2016-06-09 00:56:30",1706444,7.416,299.9,5.321,0.405,21.96,109.0052,22.34,23.4,27.86,0,111.1,13.06,23.17,261.9
"2016-06-09 00:57:00",1706445,7.298,301.4,3.917,0.266,21.85,108.9753,22.26,23.37,27.9,0,111.1,13.07,23.09,263.4
"2016-06-09 00:57:30",1706446,7.715,301.3,1.825,0.351,21.78,108.9658,22.24,23.34,27.81,0,111.1,13.07,23.07,263.3
"2016-06-09 00:58:00",1706447,6.538,298.2,6.563,0.843,22.15,108.9359,22.16,23.3,27.64,0,111.1,13.07,22.99,260.2
"2016-06-09 00:58:30",1706448,7.241,302.4,6.469,0.606,22.13,108.928,22.14,23.27,27.37,0,111.1,13.07,22.97,264.4
"2016-06-09 00:59:00",1706449,7.529,299.2,2.285,0.529,22.07,108.9097,22.09,23.22,27.38,0,111.1,13.07,22.92,261.2
"2016-06-09 00:59:30",1706450,7.687,296.1,4.149,0.536,22.14,108.8878,22.04,23.2,27.37,0,111.1,13.07,22.87,258.1
"2016-06-09 01:00:00",1706451,6.746,294.4,7.663,0.376,22.24,108.8822,22.02,23.18,27.33,0,111.1,13.07,22.85,256.4
"2016-06-09 01:00:30",1706452,5.135,278.1,8.65,0.668,22.15,108.8624,21.97,23.14,27.48,0,111.1,13.07,22.80,240.1
"2016-06-09 01:01:00",1706453,6.048,292.9,7.217,1.018,22.21,108.8513,21.94,23.11,27.45,0,111.1,13.07,22.77,254.9
"2016-06-09 01:01:30",1706454,6.498,298.4,8.58,0.694,22.27,108.8492,21.94,23.08,27.31,0,111.1,13.07,22.77,260.4
"2016-06-09 01:02:00",1706455,7.174,283,4.63,0.338,22.24,108.8489,21.94,23.06,27.43,0,111.1,13.07,22.77,245.0
"2016-06-09 01:02:30",1706456,6.985,275,5.543,0.607,22.27,108.8438,21.93,23.02,27.54,0,111.1,13.07,22.75,237.0
"2016-06-09 01:03:00",1706457,5.608,277,4.744,0.39,22.43,108.8341,21.9,23.02,26.97,0,111.1,13.07,22.73,239.0
"2016-06-09 01:03:30",1706458,5.043,272.4,6.731,0.348,22.35,108.8182,21.86,22.98,26.91,0,111.1,13.07,22.69,234.4
"2016-06-09 01:04:00",1706459,5.506,263.6,3.665,0.68,22.57,108.8206,21.87,22.99,26.59,0,111.1,13.07,22.69,225.6
"2016-06-09 01:04:30",1706460,5.688,252.1,6.421,0.785,22.67,108.8321,21.9,22.97,26.17,0,111.1,13.07,22.72,214.1
"2016-06-09 01:05:00",1706461,5.87,260.9,5.241,0.734,22.72,108.8394,21.91,22.97,25.84,0,111.1,13.07,22.74,222.9
"2016-06-09 01:05:30",1706462,6.823,258.8,3.55,0.703,23.1,108.8394,21.91,22.95,25.12,0,111.1,13.07,22.74,220.8
"2016-06-09 01:06:00",1706463,5.257,254.3,7.979,0.486,22.96,108.8402,21.92,22.96,24.59,0,111.1,13.07,22.74,216.3
"2016-06-09 01:06:30",1706464,4.841,246.9,5.826,0.34,23.04,108.8653,21.98,22.97,24.88,0,111.1,13.07,22.81,208.9
"2016-06-09 01:07:00",1706465,3.878,234.1,7.21,0.894,22.91,108.8731,22,22.97,24.24,0,111.1,13.07,22.83,196.1
"2016-06-09 01:07:30",1706466,3.492,265.9,25.56,1.169,22.17,108.8855,22.03,23,25.07,0,111.1,13.07,22.86,227.9
"2016-06-09 01:08:00",1706467,6.148,283.7,4.662,0.559,21.54,108.9058,22.08,23.03,26.82,0,111.1,13.07,22.91,245.7
"2016-06-09 01:08:30",1706468,7.393,289.5,3.435,0.484,21.8,108.9069,22.09,23.04,26.98,0,111.1,13.06,22.92,251.5
"2016-06-09 01:09:00",1706469,6.463,283.4,4.711,0.631,22.06,108.9069,22.09,23.07,26.68,0,111.1,13.06,22.92,245.4
"2016-06-09 01:09:30",1706470,6.258,283.5,2.801,0.292,21.95,108.9114,22.1,23.08,26.83,0,111.1,13.06,22.93,245.5
"2016-06-09 01:10:00",1706471,6.612,283.5,2.11,0.383,22,108.9252,22.13,23.09,26.84,0,111.1,13.06,22.96,245.5
"2016-06-09 01:10:30",1706472,5.837,286.6,2.826,0.494,22.1,108.9313,22.15,23.1,26.71,0,111.1,13.06,22.98,248.6
"2016-06-09 01:11:00",1706473,6.049,285.2,3.036,0.346,22.04,108.9356,22.16,23.09,26.73,0,111.1,13.06,22.99,247.2
"2016-06-09 01:11:30",1706474,5.824,285.4,2.644,0.256,22.05,108.9364,22.16,23.11,26.75,0,111.1,13.06,22.99,247.4
"2016-06-09 01:12:00",1706475,5.044,278.6,3.133,0.264,22.1,108.9364,22.16,23.1,26.74,0,111.1,13.06,22.99,240.6
"2016-06-09 01:12:30",1706476,5.398,279.6,2.83,0.22,22.11,108.935,22.16,23.12,26.74,0,111.1,13.06,22.99,241.6
"2016-06-09 01:13:00",1706477,5.299,280.3,2.841,0.143,22.25,108.9316,22.15,23.13,26.66,0,111.1,13.06,22.98,242.3
"2016-06-09 01:13:30",1706478,5.268,282.4,2.331,0.188,22.25,108.9257,22.14,23.12,26.54,0,111.1,13.06,22.96,244.4
"2016-06-09 01:14:00",1706479,5.344,281,1.451,0.166,22.28,108.9263,22.14,23.13,26.53,0,111.1,13.06,22.97,243.0
"2016-06-09 01:14:30",1706480,5.765,282,1.823,0.18,22.26,108.9226,22.13,23.12,26.51,0,111.1,13.06,22.96,244.0
"2016-06-09 01:15:00",1706481,5.712,284,2.881,0.321,22.32,108.919,22.12,23.12,26.45,0,111.1,13.06,22.95,246.0
"2016-06-09 01:15:30",1706482,5.358,280.7,1.667,0.137,22.3,108.9181,22.12,23.12,26.47,0,111.1,13.06,22.94,242.7
"2016-06-09 01:16:00",1706483,4.782,281.6,2.041,0.202,22.39,108.915,22.11,23.11,26.39,0,111.1,13.06,22.94,243.6
"2016-06-09 01:16:30",1706484,4.953,281.7,1.004,0.178,22.36,108.9129,22.1,23.11,26.31,0,111.1,13.06,22.93,243.7
"2016-06-09 01:17:00",1706485,5.029,283.2,1.871,0.236,22.21,108.9119,22.1,23.12,26.44,0,111.1,13.06,22.93,245.2
"2016-06-09 01:17:30",1706486,5.115,283,1.848,0.136,22.34,108.9186,22.12,23.1,26.37,0,111.1,13.06,22.95,245.0
"2016-06-09 01:18:00",1706487,4.936,282,0.975,0.101,22.23,108.9247,22.13,23.13,26.45,0,111.1,13.06,22.96,244.0
"2016-06-09 01:18:30",1706488,4.747,283.5,1.987,0.105,22.28,108.9283,22.14,23.1,26.35,0,111.1,13.06,22.97,245.5
"2016-06-09 01:19:00",1706489,4.881,284.8,1.896,0.141,22.21,108.9306,22.15,23.11,26.4,0,111.1,13.06,22.98,246.8
"2016-06-09 01:19:30",1706490,4.619,284.2,2.092,0.14,22.28,108.9318,22.15,23.12,26.43,0,111.1,13.06,22.98,246.2
"2016-06-09 01:20:00",1706491,5.026,283.7,1.152,0.184,22.28,108.9305,22.15,23.12,26.43,0,111.1,13.06,22.98,245.7
"2016-06-09 01:20:30",1706492,4.811,283.6,1.078,0.097,22.27,108.9287,22.14,23.12,26.39,0,111.1,13.06,22.97,245.6
"2016-06-09 01:21:00",1706493,5.116,284.4,1.278,0.294,22.29,108.9287,22.14,23.13,26.31,0,111.1,13.06,22.97,246.4
"2016-06-09 01:21:30",1706494,5.374,285,1.598,0.132,22.27,108.9253,22.13,23.14,26.34,0,111.1,13.06,22.96,247.0
"2016-06-09 01:22:00",1706495,5.439,285.6,2.058,0.136,22.24,108.9247,22.13,23.15,26.38,0,111.1,13.06,22.96,247.6
"2016-06-09 01:22:30",1706496,5.514,282.6,1.388,0.078,22.32,108.9238,22.13,23.15,26.36,0,111.1,13.06,22.96,244.6
"2016-06-09 01:23:00",1706497,5.482,283.1,1.094,0.076,22.31,108.9247,22.13,23.17,26.33,0,111.1,13.06,22.96,245.1
"2016-06-09 01:23:30",1706498,5.805,282.3,1.563,0.151,22.35,108.9256,22.14,23.16,26.31,0,111.1,13.06,22.96,244.3
"2016-06-09 01:24:00",1706499,5.741,282.4,1.475,0.101,22.41,108.9294,22.14,23.17,26.24,0,111.1,13.06,22.97,244.4
"2016-06-09 01:24:30",1706500,5.83,282.3,0.64,0.102,22.4,108.928,22.14,23.16,26.23,0,111.2,13.06,22.97,244.3
"2016-06-09 01:25:00",1706501,5.87,283.9,0.968,0.098,22.37,108.9306,22.15,23.18,26.23,0,111.1,13.06,22.98,245.9
"2016-06-09 01:25:30",1706502,5.706,285.7,1.796,0.14,22.33,108.932,22.15,23.18,26.25,0,111.1,13.06,22.98,247.7
"2016-06-09 01:26:00",1706503,5.88,287.5,0.85,0.179,22.24,108.9371,22.16,23.18,26.3,0,111.1,13.05,22.99,249.5
"2016-06-09 01:26:30",1706504,6.301,288.4,0.653,0.087,22.15,108.9394,22.17,23.2,26.43,0,111.1,13.05,23.00,250.4
"2016-06-09 01:27:00",1706505,6.073,290.9,1.196,0.144,22.29,108.9355,22.16,23.19,26.43,0,111.1,13.05,22.99,252.9
"2016-06-09 01:27:30",1706506,6.263,290.6,1.435,0.188,22.28,108.9325,22.15,23.19,26.37,0,111.1,13.05,22.98,252.6
"2016-06-09 01:28:00",1706507,6.403,292,1.119,0.183,22.31,108.9251,22.13,23.19,26.32,0,111.2,13.05,22.96,254.0
"2016-06-09 01:28:30",1706508,6.235,290.1,0.903,0.129,22.35,108.9221,22.13,23.19,26.31,0,111.2,13.05,22.96,252.1
"2016-06-09 01:29:00",1706509,6.033,290.7,0.908,0.103,22.39,108.9137,22.1,23.18,26.27,0,111.2,13.05,22.93,252.7
"2016-06-09 01:29:30",1706510,5.972,289.7,1.483,0.096,22.39,108.9137,22.1,23.19,26.27,0,111.2,13.05,22.93,251.7
"2016-06-09 01:30:00",1706511,5.845,287.6,2.435,0.142,22.42,108.9106,22.1,23.18,26.24,0,111.2,13.05,22.93,249.6
"2016-06-09 01:30:30",1706512,5.847,285.9,0.892,0.066,22.42,108.9124,22.1,23.16,26.23,0,111.1,13.05,22.93,247.9
"2016-06-09 01:31:00",1706513,5.803,284,1.133,0.075,22.57,108.9109,22.1,23.18,26.15,0,111.1,13.05,22.93,246.0
"2016-06-09 01:31:30",1706514,5.989,284.1,0.783,0.155,22.52,108.9103,22.1,23.16,26.11,0,111.2,13.06,22.92,246.1
"2016-06-09 01:32:00",1706515,6.133,283.8,0.502,0.082,22.51,108.9106,22.1,23.15,26.02,0,111.1,13.06,22.93,245.8
"2016-06-09 01:32:30",1706516,6.065,283.6,0.738,0.1,22.54,108.9074,22.09,23.16,26.09,0,111.2,13.06,22.92,245.6
"2016-06-09 01:33:00",1706517,5.928,284.1,0.616,0.109,22.51,108.9048,22.08,23.15,26.13,0,111.2,13.06,22.91,246.1
"2016-06-09 01:33:30",1706518,5.96,284.2,0.918,0.117,22.6,108.8994,22.07,23.14,26.11,0,111.2,13.06,22.90,246.2
"2016-06-09 01:34:00",1706519,5.951,284.5,0.779,0.068,22.6,108.8911,22.05,23.12,26.06,0,111.1,13.06,22.88,246.5
"2016-06-09 01:34:30",1706520,6.009,282.3,0.629,0.059,22.66,108.8862,22.03,23.12,26.08,0,111.1,13.06,22.86,244.3
"2016-06-09 01:35:00",1706521,6.096,280.7,0.341,0.085,22.62,108.8781,22.01,23.11,26.1,0,111.1,13.06,22.84,242.7
"2016-06-09 01:35:30",1706522,6.156,280.4,0.401,0.068,22.61,108.8768,22.01,23.11,26.13,0,111.1,13.06,22.84,242.4
"2016-06-09 01:36:00",1706523,6.25,280.2,0.443,0.051,22.61,108.8754,22.01,23.1,26.08,0,111.1,13.06,22.83,242.2
"2016-06-09 01:36:30",1706524,6.13,280.1,0.889,0.105,22.63,108.879,22.02,23.09,26.07,0,111.1,13.06,22.84,242.1
"2016-06-09 01:37:00",1706525,6.043,279.8,0.548,0.062,22.6,108.8799,22.02,23.09,26.09,0,111.2,13.06,22.85,241.8
"2016-06-09 01:37:30",1706526,5.99,280.4,0.569,0.086,22.61,108.8805,22.02,23.08,26.08,0,111.2,13.06,22.85,242.4
"2016-06-09 01:38:00",1706527,5.891,281.2,1.073,0.072,22.66,108.8787,22.01,23.08,26.09,0,111.1,13.06,22.84,243.2
"2016-06-09 01:38:30",1706528,5.936,281.5,1.171,0.179,22.71,108.8796,22.02,23.07,26.07,0,111.1,13.06,22.85,243.5
"2016-06-09 01:39:00",1706529,5.975,281.1,1.531,0.119,22.66,108.8796,22.02,23.06,26.09,0,111.2,13.06,22.85,243.1
"2016-06-09 01:39:30",1706530,5.785,281.5,1.256,0.135,22.72,108.8803,22.02,23.06,26.14,0,111.2,13.06,22.85,243.5
"2016-06-09 01:40:00",1706531,5.703,282.9,1.199,0.173,22.76,108.8769,22.01,23.04,26.18,0,111.1,13.06,22.84,244.9
"2016-06-09 01:40:30",1706532,5.827,285.5,0.881,0.175,22.75,108.8713,22,23.05,26.15,0,111.1,13.06,22.82,247.5
"2016-06-09 01:41:00",1706533,5.871,286.3,0.997,0.134,22.8,108.8705,21.99,23.04,26.17,0,111.1,13.06,22.82,248.3
"2016-06-09 01:41:30",1706534,5.754,287.6,1.245,0.066,22.91,108.8558,21.96,23.02,26.21,0,111.1,13.06,22.78,249.6
"2016-06-09 01:42:00",1706535,5.659,289,0.77,0.053,22.98,108.8526,21.95,23.01,26.19,0,111.1,13.06,22.78,251.0
"2016-06-09 01:42:30",1706536,5.66,288.6,0.51,0.125,22.96,108.8554,21.95,22.99,26.22,0,111.1,13.06,22.78,250.6
"2016-06-09 01:43:00",1706537,5.888,287.6,0.999,0.047,22.89,108.8554,21.95,23,26.31,0,111.1,13.06,22.78,249.6
"2016-06-09 01:43:30",1706538,5.842,287,0.535,0.078,22.95,108.8525,21.95,22.98,26.32,0,111.1,13.06,22.78,249.0
"2016-06-09 01:44:00",1706539,5.913,285.6,1.726,0.07,22.91,108.8379,21.91,22.98,26.42,0,111.1,13.06,22.74,247.6
"2016-06-09 01:44:30",1706540,6.053,282.9,1.278,0.056,22.9,108.825,21.88,22.97,26.56,0,111.1,13.05,22.71,244.9
"2016-06-09 01:45:00",1706541,5.953,279.5,0.929,0.056,22.86,108.8278,21.88,22.94,26.76,0,111.1,13.05,22.71,241.5
"2016-06-09 01:45:30",1706542,6.082,277.2,1.042,0.112,22.82,108.8293,21.89,22.93,26.95,0,111.1,13.05,22.72,239.2
"2016-06-09 01:46:00",1706543,6.568,274.9,1.457,0.194,22.78,108.8195,21.86,22.92,27.21,0,111.1,13.06,22.69,236.9
"2016-06-09 01:46:30",1706544,6.418,274.7,0.776,0.209,22.88,108.7971,21.81,22.9,27.18,0,111.1,13.05,22.63,236.7
"2016-06-09 01:47:00",1706545,6.649,274.8,0.688,0.11,22.9,108.7999,21.81,22.88,27.04,0,111.1,13.06,22.64,236.8
"2016-06-09 01:47:30",1706546,6.399,273.9,1.543,0.137,22.97,108.7889,21.78,22.85,27.01,0,111.1,13.06,22.61,235.9